Weather reports worldwide

Advertisment
Palermo/Punta Raisi, Italy (16405): temperature & dewpoint: 06.12.2019 12:00:00 - 12.12.2019 12:00:00 (CET)Palermo/Punta Raisi, Italy (16405): wind speed: 06.12.2019 12:00:00 - 12.12.2019 12:00:00 (CET)Palermo/Punta Raisi, Italy (16405): wind direction: 06.12.2019 12:00:00 - 12.12.2019 12:00:00 (CET)Palermo/Punta Raisi, Italy (16405): reduced air pressure: 06.12.2019 12:00:00 - 12.12.2019 12:00:00 (CET)Palermo/Punta Raisi, Italy (16405): visibility: 06.12.2019 12:00:00 - 12.12.2019 12:00:00 (CET)Palermo/Punta Raisi, Italy (16405): precipitation: 06.12.2019 12:00:00 - 12.12.2019 12:00:00 (CET)
Date & Time tt [°C] td [°C] ff [km/h] ff [kn] dd ppp [hPa] vv [km] rr [mm]
12.12.2019 12:00:00 15,0 8,0 37 20 WNW - 10 -
12.12.2019 11:00:00 15,0 8,0 34 18 WNW - 10 -
12.12.2019 10:00:00 13,3 9,6 28 15 WNW 1010,0 7 0,0
12.12.2019 09:00:00 12,0 9,0 31 17 W - 2,0 -
12.12.2019 08:00:00 13,0 6,0 24 13 SSW - 10 -
12.12.2019 07:00:00 11,9 5,4 13 7 S 1008,0 10 -
12.12.2019 06:00:00 13,0 5,0 16 9 SSW - 10 -
12.12.2019 05:00:00 12,0 5,0 16 9 SSW - 10 -
12.12.2019 04:00:00 14,2 5,9 16 9 W 1008,8 10 0,0
12.12.2019 03:00:00 14,0 4,0 22 12 W - 10 -
12.12.2019 02:00:00 14,0 4,0 22 12 WNW - 10 -
12.12.2019 01:00:00 14,1 6,2 21 11 W 1011,0 10 -
12.12.2019 00:00:00 14,0 5,0 22 12 WNW - 10 -
11.12.2019 23:00:00 14,0 5,0 29 16 WNW - 10 -
11.12.2019 22:00:00 13,7 5,0 26 14 NW 1011,9 10 0,0
11.12.2019 21:00:00 14,0 6,0 18 10 NNW - 10 -
11.12.2019 20:00:00 14,0 6,0 26 14 NW - 10 -
11.12.2019 19:00:00 13,7 6,2 29 16 NNW 1012,1 10 -
11.12.2019 18:00:00 14,0 7,0 34 18 NW - 10 -
11.12.2019 17:00:00 14,0 8,0 31 17 NW - 10 -
11.12.2019 16:00:00 14,2 7,2 31 17 NNW 1010,9 10 0,0
11.12.2019 15:00:00 15,0 9,0 34 18 NNW - 10 -
11.12.2019 14:00:00 15,0 10,0 29 16 NNW - 10 -
11.12.2019 13:00:00 15,0 9,6 34 18 NNW 1010,9 10 -
11.12.2019 12:00:00 15,0 8,0 21 11 N - 10 -
11.12.2019 11:00:00 15,0 8,0 18 10 N - 10 -
11.12.2019 10:00:00 15,1 7,5 31 17 N 1011,9 10 0,0
11.12.2019 09:00:00 15,0 9,0 35 19 N - 10 -
11.12.2019 08:00:00 15,0 9,0 31 17 NNE - 10 -
11.12.2019 07:00:00 15,0 9,4 35 19 NNE 1010,4 10 -
11.12.2019 06:00:00 15,0 9,0 37 20 NE - 10 -
11.12.2019 05:00:00 15,0 9,0 41 22 NE - 10 -
11.12.2019 04:00:00 12,6 9,5 9 5 NNE 1009,9 10 0,0
11.12.2019 03:00:00 12,0 9,0 13 7 NE - 10 -
11.12.2019 02:00:00 12,0 9,0 13 7 NNE - 10 -
11.12.2019 01:00:00 11,2 8,8 35 19 NE 1009,8 10 -
11.12.2019 00:00:00 13,0 9,0 18 10 E - 10 -
10.12.2019 23:00:00 15,0 9,0 21 11 NNE - 10 -
10.12.2019 22:00:00 14,6 8,7 21 11 NE 1009,1 10 0,0
10.12.2019 21:00:00 15,0 9,0 21 11 NE - 10 -
10.12.2019 20:00:00 12,0 8,0 13 7 ENE - 10 -
10.12.2019 19:00:00 12,3 7,8 8 4 SE 1008,2 10 -
10.12.2019 18:00:00 12,0 8,0 5 3 ESE - 10 -
10.12.2019 17:00:00 12,0 9,0 5 3 ENE - 10 -
10.12.2019 16:00:00 13,5 8,4 8 4 ENE 1006,6 10 0,0
10.12.2019 15:00:00 14,0 8,0 9 5 E - 10 -
10.12.2019 14:00:00 14,0 9,0 9 5 SSW - 10 -
10.12.2019 13:00:00 12,8 7,9 13 7 S 1007,1 10 -
10.12.2019 12:00:00 13,0 8,0 11 6 NNE - 6 -
10.12.2019 11:00:00 14,0 8,0 22 12 W - 10 -
10.12.2019 10:00:00 12,5 7,7 11 6 NW 1009,1 10 0,0
10.12.2019 09:00:00 11,0 8,0 13 7 S - 10 -
10.12.2019 08:00:00 11,0 6,0 8 4 S - 10 -
10.12.2019 07:00:00 12,5 8,7 9 5 SSE 1008,6 10 -
10.12.2019 06:00:00 13,0 10,0 34 18 WSW - 10 -
10.12.2019 05:00:00 15,0 10,0 34 18 W - 10 -
10.12.2019 04:00:00 14,6 10,8 37 20 W 1009,3 8 0,0
10.12.2019 03:00:00 16,0 10,0 31 17 WSW - 10 -
10.12.2019 02:00:00 16,0 10,0 39 21 W - 10 -
10.12.2019 01:00:00 15,8 10,6 42 23 W 1010,5 10 -
10.12.2019 00:00:00 15,0 10,0 16 9 SW - 10 -
09.12.2019 23:00:00 14,0 10,0 21 11 SSW - 10 -
09.12.2019 22:00:00 14,3 10,1 18 10 SSW 1011,8 10 0,0
09.12.2019 21:00:00 16,0 12,0 22 12 W - 10 -
09.12.2019 20:00:00 14,0 11,0 13 7 SSW - 10 -
09.12.2019 19:00:00 16,2 12,7 24 13 W 1013,0 10 -
09.12.2019 18:00:00 16,0 13,0 21 11 W - 10 -
09.12.2019 17:00:00 16,0 12,0 18 10 W - 10 -
09.12.2019 16:00:00 16,3 11,6 22 12 WNW 1013,6 10 0,0
09.12.2019 15:00:00 16,0 12,0 21 11 W - 10 -
09.12.2019 14:00:00 16,0 12,0 21 11 WNW - 10 -
09.12.2019 13:00:00 16,1 11,6 15 8 SW 1014,1 10 -
09.12.2019 12:00:00 16,0 10,0 15 8 SW - 10 -
09.12.2019 11:00:00 15,0 10,0 8 4 SSW - 10 -
09.12.2019 10:00:00 13,8 10,5 13 7 SSE 1015,9 10 0,0
09.12.2019 09:00:00 13,0 10,0 16 9 SSW - 10 -
09.12.2019 08:00:00 13,0 11,0 13 7 SSW - 10 -
09.12.2019 07:00:00 13,3 8,7 5 3 SW 1015,9 10 -
09.12.2019 06:00:00 13,0 10,0 8 4 S - 10 -
09.12.2019 05:00:00 13,0 11,0 8 4 SSE - 10 -
09.12.2019 04:00:00 14,7 10,5 2 1 ESE 1016,7 10 0,0
09.12.2019 03:00:00 14,0 10,0 8 4 SSE - 10 -
09.12.2019 02:00:00 14,0 9,0 8 4 S - 10 -
09.12.2019 01:00:00 13,0 8,2 9 5 S 1017,9 10 -
09.12.2019 00:00:00 13,0 7,0 5 3 S - 10 -
08.12.2019 23:00:00 14,0 10,0 13 7 SSW - 10 -
08.12.2019 22:00:00 14,0 9,7 8 4 S 1018,8 10 0,0
08.12.2019 21:00:00 12,0 9,0 11 6 SSW - 10 -
08.12.2019 20:00:00 14,0 8,0 4 2 SSW - 10 -
08.12.2019 19:00:00 13,6 9,9 5 3 - 1019,5 10 -
08.12.2019 18:00:00 15,0 10,0 4 2 - - 10 -
08.12.2019 17:00:00 15,0 11,0 8 4 E - 10 -
08.12.2019 16:00:00 15,8 10,9 16 9 ENE 1019,9 10 0,0
08.12.2019 15:00:00 16,0 10,0 18 10 NE - 10 -
08.12.2019 14:00:00 16,0 12,0 21 11 ENE - 10 -
08.12.2019 13:00:00 15,9 10,8 5 3 N 1021,3 10 -
08.12.2019 12:00:00 16,0 11,0 5 3 N - 10 -
08.12.2019 11:00:00 16,0 10,0 5 3 NNE - 10 -
08.12.2019 10:00:00 15,0 8,9 4 2 - 1022,6 10 0,0
08.12.2019 09:00:00 13,0 8,0 2 1 - - 10 -
08.12.2019 08:00:00 11,0 6,0 5 3 S - 10 -
08.12.2019 07:00:00 10,2 5,6 9 5 S 1022,1 10 -
08.12.2019 06:00:00 9,0 5,0 5 3 SSW - 10 -
08.12.2019 05:00:00 11,0 7,0 5 3 S - 10 -
08.12.2019 04:00:00 10,3 6,4 2 1 - 1021,5 10 0,0
08.12.2019 03:00:00 12,0 7,0 4 2 SSW - 10 -
08.12.2019 02:00:00 12,0 7,0 8 4 SSW - 10 -
08.12.2019 01:00:00 11,9 7,5 2 1 - 1021,8 10 -
08.12.2019 00:00:00 14,0 6,0 4 2 SSE - 10 -
07.12.2019 23:00:00 14,0 8,0 5 3 SSW - 10 -
07.12.2019 22:00:00 14,3 8,3 8 4 S 1022,4 10 0,0
07.12.2019 21:00:00 15,0 9,0 9 5 S - 10 -
07.12.2019 20:00:00 15,0 11,0 9 5 S - 10 -
07.12.2019 19:00:00 14,4 11,0 9 5 S 1022,0 10 -
07.12.2019 18:00:00 16,0 12,0 5 3 E - 10 -
07.12.2019 17:00:00 17,0 12,0 4 2 - - 10 -
07.12.2019 16:00:00 17,4 11,4 5 3 ENE 1021,3 10 0,0
07.12.2019 15:00:00 18,0 11,0 5 3 NNE - 10 -
07.12.2019 14:00:00 19,0 11,0 4 2 - - 10 -
07.12.2019 13:00:00 19,2 11,0 15 8 SSW 1021,6 10 -
07.12.2019 12:00:00 19,0 10,0 21 11 SSW - 10 -
07.12.2019 11:00:00 19,0 10,0 16 9 SSW - 10 -
07.12.2019 10:00:00 18,2 10,9 4 2 - 1023,2 10 0,0
07.12.2019 09:00:00 16,0 8,0 9 5 S - 10 -
07.12.2019 08:00:00 12,0 8,0 5 3 S - 10 -
07.12.2019 07:00:00 14,2 8,4 9 5 ESE 1022,4 10 -
07.12.2019 06:00:00 14,0 7,0 13 7 S - 10 -
07.12.2019 05:00:00 14,0 7,0 11 6 S - 10 -
07.12.2019 04:00:00 13,5 6,4 13 7 S 1022,0 10 0,0
07.12.2019 03:00:00 13,0 6,0 4 2 S - 10 -
07.12.2019 02:00:00 15,0 6,0 8 4 S - 10 -
07.12.2019 01:00:00 14,0 6,4 9 5 S 1022,6 10 -
07.12.2019 00:00:00 14,0 7,0 9 5 S - 10 -
06.12.2019 23:00:00 12,0 7,0 9 5 S - 10 -
06.12.2019 22:00:00 13,9 8,1 11 6 S 1023,2 10 0,0
06.12.2019 21:00:00 14,0 10,0 9 5 S - 10 -
06.12.2019 20:00:00 13,0 11,0 11 6 SSE - 10 -
06.12.2019 19:00:00 13,3 11,2 11 6 SSE 1023,2 10 -
06.12.2019 18:00:00 16,0 13,0 5 3 S - 10 -
06.12.2019 17:00:00 17,0 14,0 11 6 WNW - 10 -
06.12.2019 16:00:00 16,8 14,4 9 5 WNW 1022,5 10 0,0
06.12.2019 15:00:00 17,0 14,0 13 7 W - 10 -
06.12.2019 14:00:00 17,0 13,0 8 4 W - 10 -
06.12.2019 13:00:00 16,8 13,8 13 7 W 1023,2 10 -
06.12.2019 12:00:00 17,0 13,0 11 6 WSW - 10 -

tt = temperature
td = dewpoint
ff = wind speed
dd = wind direction
ppp = reduced air pressure
vv = visibility
rr = precipitation

Next stations